Location: Central Coast NSW, Australia
(33.2407°S, 151.4316°E)
Time: 18:06:22
(UTC+10:00)

Envisat - Pass Details

Date: 30 March 2019
Orbit: 764 x 766 km, 98.2° (Epoch: 20 April)

Event Time Altitude Azimuth Distance (km) Brightness Sun altitude
Rises 20:57:06 0° 179° (S) 3,267 6.4 -26.6°
Reaches altitude 10° 20:59:36 10° 188° (S) 2,333 5.7 -27.1°
Maximum altitude 21:04:13 34° 251° (WSW) 1,248 4.6 -28.0°
Drops below altitude 10° 21:08:47 10° 315° (NW) 2,307 5.8 -28.9°
Sets 21:11:14 0° 324° (NW) 3,225 6.5 -29.4°
